Weather History for KHBI - May, 2014

Change the Weather History Date:

Tuesday, May 27, 2014

  Actual Average (KGSO) Record (KGSO)
Temperature  
Mean Temperature 76 °F 70 °F  
Max Temperature 84 °F 80 °F 100 °F (1911)
Min Temperature 68 °F 60 °F 40 °F (1961)
Degree Days  
Heating Degree Days 0 1  
Month to date heating degree days 63  
Since 1 July heating degree days 3609  
Cooling Degree Days 11 6  
Month to date cooling degree days 96  
Year to date cooling degree days 134  
Growing Degree Days 26 (Base 50)    
Moisture  
Dew Point 67 °F    
Average Humidity 82    
Maximum Humidity 99    
Minimum Humidity 49    
Precipitation  
Precipitation 0.11 in 0.12 in 2.55 in (1905)
Month to date precipitation 2.89  
Year to date precipitation 16.21  
Sea Level Pressure  
Sea Level Pressure 30.09 in    
Wind  
Wind Speed 5 mph (SW)    
Max Wind Speed 10 mph    
Max Gust Speed 22 mph    
Visibility 10 miles    
Events Rain    
T = Trace of Precipitation, MM = Missing Value Source: NWS Daily Summary

Daily Weather History Graph

Daily Weather History Graph

Search for Another Location

Airport or City:

Trip Planner

Search our weather history database for the weather conditions in past years. The results will help you decide how hot, cold, wet, or windy it might be!

Date:

Astronomy

May. 27, 2014 Rise Set
Actual Time 6:07 AM EDT 8:26 PM EDT
Civil Twilight 5:37 AM EDT 8:56 PM EDT
Nautical Twilight 5:02 AM EDT 9:31 PM EDT
Astronomical Twilight 4:22 AM EDT 10:11 PM EDT
Moon 5:24 AM EDT (5/27) 7:30 PM EDT (5/27)
Length of Visible Light 15h 18m
Length of Day
14h 19m
Waning Crescent, 1% of the Moon is Illuminated
May 27
Waning Crescent
May 28
New
Jun 5
First Quarter
Jun 13
Full
Jun 19
Last Quarter

Hourly Weather History & Observations

Time (EDT) Temp. Heat Index Dew Point Humidity Pressure Visibility Wind Dir Wind Speed Gust Speed Precip Events Conditions
12:15 AM 74.3 °F - 64.8 °F 72% 30.15 in 10.0 mi SSW 5.8 mph - N/A   Scattered Clouds
12:35 AM 74.3 °F - 64.8 °F 72% 30.14 in 10.0 mi South 4.6 mph - N/A   Scattered Clouds
12:55 AM 73.6 °F - 64.8 °F 74% 30.15 in 10.0 mi SSW 9.2 mph - N/A   Scattered Clouds
1:15 AM 73.2 °F - 65.3 °F 76% 30.15 in 10.0 mi South 6.9 mph - N/A   Scattered Clouds
1:35 AM 72.5 °F - 65.5 °F 79% 30.15 in 10.0 mi SSW 6.9 mph - N/A   Clear
2:15 AM 71.6 °F - 66.2 °F 83% 30.14 in 10.0 mi SSW 9.2 mph - N/A   Clear
2:35 AM 71.4 °F - 66.2 °F 84% 30.13 in 10.0 mi SSW 6.9 mph - N/A   Clear
2:55 AM 71.2 °F - 66.4 °F 85% 30.13 in 10.0 mi SSW 8.1 mph - N/A   Clear
3:15 AM 70.7 °F - 66.4 °F 86% 30.13 in 10.0 mi SSW 6.9 mph - N/A   Clear
3:35 AM 70.3 °F - 66.6 °F 88% 30.13 in 10.0 mi SSW 5.8 mph - N/A   Clear
3:55 AM 70.0 °F - 66.6 °F 89% 30.12 in 10.0 mi South 5.8 mph - N/A   Clear
4:15 AM 69.8 °F - 66.4 °F 89% 30.12 in 10.0 mi SSW 8.1 mph - N/A   Clear
4:35 AM 69.3 °F - 66.4 °F 91% 30.12 in 10.0 mi South 5.8 mph - N/A   Clear
4:55 AM 69.1 °F - 66.6 °F 92% 30.12 in 10.0 mi SSW 6.9 mph - N/A   Clear
5:15 AM 68.9 °F - 66.4 °F 92% 30.13 in 10.0 mi SSW 5.8 mph - N/A   Clear
5:35 AM 68.4 °F - 66.4 °F 93% 30.12 in 10.0 mi SSW 8.1 mph - N/A   Clear
5:55 AM 68.4 °F - 66.2 °F 93% 30.12 in 10.0 mi SSW 6.9 mph - N/A   Clear
6:15 AM 68.0 °F - 66.2 °F 94% 30.12 in 10.0 mi SSW 8.1 mph - N/A   Clear
6:35 AM 68.0 °F - 66.2 °F 94% 30.13 in 10.0 mi SSW 5.8 mph - N/A   Clear
6:55 AM 68.0 °F - 66.4 °F 95% 30.13 in 7.0 mi SSW 5.8 mph - N/A   Clear
7:15 AM 68.4 °F - 66.4 °F 93% 30.14 in 10.0 mi SSW 5.8 mph - N/A   Clear
7:35 AM 69.1 °F - 66.4 °F 91% 30.14 in 10.0 mi SSW 5.8 mph - N/A   Clear
7:55 AM 69.4 °F - 66.4 °F 90% 30.13 in 10.0 mi SW 5.8 mph - N/A   Clear
8:15 AM 70.5 °F - 66.2 °F 86% 30.14 in 10.0 mi SW 6.9 mph - N/A   Clear
8:35 AM 71.2 °F - 66.2 °F 84% 30.14 in 10.0 mi SW 6.9 mph - N/A   Clear
8:55 AM 71.6 °F - 66.6 °F 84% 30.14 in 10.0 mi WSW 4.6 mph - N/A   Clear
9:15 AM 73.0 °F - 67.1 °F 82% 30.14 in 10.0 mi SW 4.6 mph - N/A   Clear
9:35 AM 74.3 °F - 66.7 °F 77% 30.13 in 10.0 mi Calm Calm - N/A   Clear
9:55 AM 75.4 °F - 67.1 °F 75% 30.13 in 10.0 mi SW 4.6 mph - N/A   Clear
10:15 AM 76.8 °F - 67.3 °F 72% 30.12 in 10.0 mi WSW 4.6 mph - N/A   Clear
10:35 AM 78.4 °F - 67.3 °F 68% 30.12 in 10.0 mi SW 5.8 mph - N/A   Clear
10:55 AM 79.3 °F - 66.9 °F 66% 30.12 in 10.0 mi SW 6.9 mph - N/A   Clear
11:15 AM 79.7 °F - 66.6 °F 64% 30.12 in 10.0 mi SW 5.8 mph - N/A   Clear
11:35 AM 79.3 °F - 66.7 °F 65% 30.12 in 10.0 mi West 5.8 mph - N/A   Clear
11:55 AM 80.4 °F 82.7 °F 66.6 °F 63% 30.12 in 10.0 mi Calm Calm - N/A   Clear
12:15 PM 82.0 °F 83.9 °F 65.5 °F 57% 30.12 in 10.0 mi West 5.8 mph - N/A   Clear
12:35 PM 82.0 °F 83.6 °F 64.6 °F 55% 30.11 in 10.0 mi WNW 5.8 mph - N/A   Clear
12:55 PM 82.4 °F 83.9 °F 64.4 °F 54% 30.10 in 10.0 mi West 3.5 mph - N/A   Scattered Clouds
1:15 PM 82.6 °F 84.3 °F 64.8 °F 55% 30.09 in 10.0 mi SW 5.8 mph - N/A   Scattered Clouds
1:35 PM 83.7 °F 84.9 °F 63.5 °F 51% 30.09 in 10.0 mi West 5.8 mph - N/A   Scattered Clouds
2:15 PM 84.0 °F 85.6 °F 64.4 °F 52% 30.07 in 10.0 mi WSW 4.6 mph - N/A   Clear
2:35 PM 83.8 °F 85.3 °F 64.4 °F 52% 30.06 in 10.0 mi West 4.6 mph - N/A   Clear
2:55 PM 84.9 °F 86.1 °F 63.9 °F 49% 30.06 in 10.0 mi WSW 6.9 mph - N/A   Clear
3:15 PM 82.4 °F 84.2 °F 65.5 °F 56% 30.05 in 10.0 mi North 4.6 mph - N/A   Mostly Cloudy
3:35 PM 82.8 °F 84.5 °F 65.3 °F 55% 30.04 in 10.0 mi Calm Calm - N/A   Scattered Clouds
3:55 PM 82.0 °F 84.5 °F 66.9 °F 60% 30.04 in 10.0 mi NNW 10.4 mph 17.3 mph N/A   Scattered Clouds
4:15 PM 72.3 °F - 64.9 °F 78% 30.09 in 10.0 mi South 5.8 mph 21.9 mph N/A Rain Heavy Rain
4:35 PM 70.2 °F - 66.7 °F 89% 30.07 in 2.0 mi Calm Calm - 0.08 in Rain Heavy Rain
4:55 PM 68.5 °F - 67.1 °F 95% 30.05 in 10.0 mi East 5.8 mph - 0.11 in   Scattered Clouds
5:15 PM 68.9 °F - 67.1 °F 94% 30.04 in 10.0 mi Calm Calm - N/A   Clear
5:35 PM 71.2 °F - 68.4 °F 91% 30.03 in 10.0 mi Calm Calm - N/A   Clear
5:55 PM 72.7 °F - 69.6 °F 90% 30.03 in 10.0 mi SW 4.6 mph - N/A   Clear
6:15 PM 73.0 °F - 69.3 °F 88% 30.02 in 10.0 mi SSE 4.6 mph - N/A   Clear
6:35 PM 73.2 °F - 69.6 °F 88% 30.03 in 10.0 mi Calm Calm - N/A   Clear
7:15 PM 72.9 °F - 70.2 °F 91% 30.03 in 10.0 mi Calm Calm - N/A   Clear
7:35 PM 72.9 °F - 70.2 °F 91% 30.03 in 10.0 mi Calm Calm - N/A   Clear
7:55 PM 72.7 °F - 71.1 °F 95% 30.03 in 10.0 mi Calm Calm - N/A   Clear
8:15 PM 72.5 °F - 69.8 °F 91% 30.03 in 10.0 mi SSW 3.5 mph - N/A   Clear
8:35 PM 70.3 °F - 69.3 °F 96% 30.03 in 7.0 mi Calm Calm - N/A   Clear
8:55 PM 69.8 °F - 69.3 °F 98% 30.03 in 7.0 mi Calm Calm - N/A   Clear
9:15 PM 70.0 °F - 69.3 °F 98% 30.04 in 10.0 mi Calm Calm - N/A   Clear
9:35 PM 68.9 °F - 68.5 °F 99% 30.04 in 7.0 mi Calm Calm - N/A   Clear
9:55 PM 68.9 °F - 68.4 °F 98% 30.04 in 10.0 mi Calm Calm - N/A   Clear
10:15 PM 68.5 °F - 68.4 °F 99% 30.06 in 7.0 mi Calm Calm - N/A   Clear
10:35 PM 68.7 °F - 68.4 °F 99% 30.07 in 7.0 mi South 3.5 mph - N/A   Clear
10:55 PM 69.8 °F - 68.0 °F 94% 30.07 in 10.0 mi South 3.5 mph - N/A   Clear
11:15 PM 69.8 °F - 67.5 °F 92% 30.06 in 10.0 mi Calm Calm - N/A   Clear
11:35 PM 68.0 °F - 67.5 °F 98% 30.05 in 4.0 mi Calm Calm - N/A   Clear
11:55 PM 68.0 °F - 67.8 °F 99% 30.05 in 5.0 mi Calm Calm - N/A   Clear